sat.trackr.live / text

‹ back to catalog

STARLINK-33593

NORAD 62780 · 2025-015Y

PAYLOAD ACTIVE UNKNOWN

§ Identity

Operator
Country
US
Launch date
2025-01-21
Launch site
AFWTR
Launch vehicle
Mass (kg)
RCS (m²)

Purposes: comms

External: N2YO · Heavens-Above · Gunter

§ Orbital elements

Epoch: 2026-05-25T04:00:03.998880Z

Period
93.85 min
Inclination
53.1602°
Eccentricity
0.0001050
Mean motion
15.34397185 rev/d
Perigee alt
462.0 km
Apogee alt
463.4 km
Semi-major
6,840.8 km
B*
-5.2400e-4
RAAN
326.9262°
Arg perigee
52.0700°
Mean anomaly
332.2069°
Rev number
580

§ Raw data

STARLINK-335931 62780U 25015Y   26145.16671295 -.00018037  00000+0 -52400-3 0  99952 62780  53.1602 326.9262 0001050  52.0700 332.2069 15.34397185  5806

JSON: /api/v1/satellites/62780 · /tle

For live sub-satellite position, see the globe view (requires WebGL).

§ Visibility from observer

Set your observer location to see the next 7 days of passes ≥ 10°. The values pass through the URL so the page stays shareable.

No JS? Fill the form by hand. The geolocation button needs JavaScript.